EHI
0 0 0 0 0 0 0 0 0 0 0 0 0 0 1 5 8 7 5 4 2 0 0 0 0 1 1 1 2 1 2 2 2 2 1 0 0 0 0 0 1 1 0 0
0 0 0 0 0 0 0 0 0 0 0 0 0 1 2 6 8 8 6 5 3 1 0 0 1 2 2 3 4 4 3 3 3 2 1 0 0 0 1 1 2 2 1 0
0 0 0 0 0 0 0 0 0 0 0 0 0 1 3 5 7 8 7 5 3 1 1 1 1 2 3 5 7 7 4 3 3 3 2 2 2 2 2 3 3 3 2 1
0 0 0 0 0 0 0 0 0 0 0 0 0 1 3 5 6 7 7 5 2 1 0 0 1 2 4 6 8 7 4 3 4 4 5 5 5 5 4 3 3 3 3 3
0 0 0 0 0 0 0 0 0 0 0 0 0 1 2 4 5 6 6 4 1 0 0 0 1 2 4 6 7 6 5 4 5 6 6 7 7 6 4 3 2 2 3 3
0 0 0 0 0 0 0 0 0 0 0 0 0 0 1 2 3 4 4 3 1 0 0 0 1 2 3 4 6 7 7 6 6 6 7 8 8 7 5 3 2 2 3 4
0 0 0 0 0 0 0 0 0 0 0 0 0 0 0 1 1 3 3 2 0 0 1 0 0 1 1 2 4 7 8 9 8 8 8 9 9 9 7 5 4 3 3 4
0 0 0 0 0 0 0 0 0 0 0 0 0 0 0 1 2 2 2 1 0 1 1 1 1 1 1 1 3 5 7 9 10 9 8 9 10 10 8 6 5 4 3 3
0 0 0 0 0 0 0 0 0 0 0 0 0 0 1 3 3 2 1 1 1 2 3 3 4 4 3 2 3 3 5 7 9 9 8 8 9 9 7 5 4 5 4 4
0 0 0 0 0 0 0 0 0 0 0 0 0 0 1 3 4 3 1 2 3 3 4 5 6 6 5 5 4 3 3 4 6 7 7 7 7 7 6 5 5 5 5 5
0 0 0 0 0 0 0 0 0 0 0 0 0 0 1 2 4 3 1 2 3 3 4 5 5 6 6 6 4 2 1 2 3 4 5 6 6 6 6 7 7 7 6 7
0 0 0 0 0 0 0 0 0 0 0 0 0 0 0 1 3 2 1 1 2 2 2 2 3 4 4 4 3 1 0 0 2 3 3 3 4 5 7 8 8 8 8 8
0 0 0 0 0 0 0 0 0 0 0 0 0 0 0 1 2 2 1 0 1 1 1 0 1 1 2 3 2 1 0 0 1 2 2 3 3 4 6 7 7 7 7 8
0 0 0 0 0 0 0 0 0 0 0 0 0 0 0 1 3 3 3 1 1 1 0 0 0 0 1 1 1 0 1 1 1 1 3 4 5 4 5 6 5 5 7 7
0 0 0 0 0 0 0 0 0 0 0 0 0 0 0 1 4 6 5 3 2 2 1 1 0 1 1 1 0 1 2 2 3 3 4 5 6 6 6 6 6 6 7 8
0 0 0 0 0 0 0 0 0 0 0 0 0 0 0 3 6 7 6 5 5 4 3 2 2 2 2 1 1 3 3 3 4 5 5 6 7 9 10 9 9 8 7 7
0 0 0 0 0 0 0 0 0 0 0 0 0 0 2 5 7 6 5 6 6 5 4 3 3 3 2 2 3 4 4 4 5 5 5 6 7 10 11 11 10 9 7 6
0 0 0 0 0 0 0 0 0 0 0 0 0 1 3 6 6 5 4 4 5 4 3 3 3 3 2 2 4 5 3 3 4 5 6 6 7 9 11 11 10 9 7 6
0 0 0 0 0 0 0 1 0 0 0 0 1 2 4 5 5 4 3 3 3 3 2 2 2 2 1 1 3 4 2 3 4 5 6 6 7 9 12 13 13 12 10 8
0 0 0 0 0 0 0 1 1 0 0 1 2 3 4 4 5 4 3 3 2 1 1 1 1 1 0 0 1 2 2 3 4 4 5 6 8 11 15 17 17 16 14 12
0 0 0 0 0 0 1 2 2 1 1 2 3 2 2 3 4 4 3 2 1 0 0 0 0 0 1 1 1 2 3 3 3 3 4 6 8 12 16 19 19 18 16 14
0 0 0 0 0 0 1 2 2 1 1 2 2 1 1 3 3 2 1 0 0 0 0 0 1 1 2 2 2 3 3 3 3 3 3 5 8 12 16 18 18 16 14 12
1 0 0 0 0 0 0 1 1 1 1 1 1 1 2 3 3 2 1 1 0 0 1 1 2 2 3 3 2 2 3 3 4 5 5 6 8 12 14 15 15 13 12 10
2 1 1 1 0 0 0 0 0 0 0 0 0 1 2 2 3 3 2 2 1 1 2 2 3 3 3 2 1 1 2 3 4 6 7 8 9 11 12 12 12 12 11 11
2 1 1 1 0 0 0 0 0 0 0 0 0 0 1 2 3 3 3 2 1 1 2 2 2 2 1 1 0 1 2 3 4 6 7 7 7 8 9 9 10 10 9 9
1 1 1 1 0 0 0 0 0 0 0 0 0 0 1 2 3 3 3 2 1 0 1 1 1 1 0 0 1 2 2 3 4 6 7 6 4 4 7 8 7 7 6 5
Wind_Speed
2 3 3 7 7 4 3 3 1 2 0 2 1 1 2 4 4 5 5 5 5 5 3 3 3 3 2 1 2 2 1 1 1 1 1 0 1 1 1 1 1 1 1 1
4 3 6 4 3 2 3 3 1 1 2 3 1 1 1 3 5 6 6 6 5 4 2 3 3 3 3 3 2 2 2 1 1 1 1 1 1 1 1 1 0 1 1 1
4 5 2 3 3 3 3 5 4 3 2 4 3 3 2 2 2 3 4 5 5 6 5 4 4 4 3 3 3 3 2 2 1 1 1 1 1 1 1 1 1 1 1 1
3 3 2 2 3 5 3 4 5 5 4 1 2 2 5 3 2 4 5 5 5 5 5 4 4 4 4 4 3 2 2 2 2 2 1 2 1 1 2 1 1 1 1 0
3 2 2 2 3 5 3 4 5 4 4 2 2 1 6 1 4 6 6 6 5 5 5 5 6 5 5 4 3 3 2 2 1 2 2 2 1 2 1 1 2 2 1 0
3 2 2 3 1 4 6 8 7 6 5 2 2 2 5 3 6 5 5 5 5 5 5 5 4 3 3 3 3 2 2 2 1 2 2 2 2 1 1 2 2 1 1 1
3 3 1 2 4 3 5 7 4 4 4 4 2 1 7 5 4 5 5 5 5 4 4 4 3 3 3 3 3 3 3 2 2 2 2 2 2 2 2 2 2 2 1 1
1 4 3 1 4 5 4 8 7 4 4 4 1 3 6 4 2 1 1 2 3 3 3 4 4 4 3 3 3 3 3 3 2 2 2 2 2 2 2 2 2 2 2 2
5 5 3 0 1 8 5 3 5 7 2 1 3 5 7 3 3 3 2 2 2 2 3 3 3 3 3 3 3 4 4 3 3 3 2 2 2 2 3 2 2 2 2 2
7 2 3 1 5 6 4 7 6 6 5 1 3 3 4 3 2 1 0 1 2 2 2 2 2 3 2 2 2 2 3 3 2 2 2 2 2 3 2 2 2 2 2 2
4 4 2 3 2 2 3 4 5 5 5 6 2 6 4 5 4 4 3 2 3 3 3 2 2 2 2 2 1 1 1 1 1 1 1 1 1 1 1 2 2 2 2 2
3 6 1 3 2 1 3 5 6 5 3 4 4 6 3 3 3 3 3 2 1 2 2 2 2 2 2 2 1 1 1 1 1 1 1 1 1 1 1 2 2 2 2 2
6 7 4 5 5 3 3 2 3 6 6 4 4 6 3 1 1 1 2 2 2 1 1 2 2 2 1 0 0 1 1 1 1 0 0 1 1 1 2 2 2 1 2 1
7 6 6 8 6 3 1 1 3 5 4 4 6 5 3 2 1 1 1 2 2 2 2 2 1 1 1 1 1 1 1 1 0 0 1 2 2 2 2 2 1 2 2 2
6 5 2 2 2 3 2 2 3 3 5 7 6 5 6 5 4 3 2 2 2 2 2 2 2 1 1 1 1 1 1 1 1 1 2 3 3 2 2 1 2 2 2 2
5 5 3 1 1 2 2 0 2 2 2 3 2 5 4 2 1 0 1 2 2 1 1 1 1 1 2 2 2 2 2 1 1 2 3 3 2 2 2 2 2 2 2 2
3 6 4 2 2 2 2 3 3 2 2 4 5 6 1 1 1 1 1 2 2 2 1 2 2 3 3 2 2 2 2 1 1 2 2 2 2 2 2 2 2 3 3 3
6 5 4 3 2 3 7 2 3 3 1 1 2 2 2 3 1 0 1 1 2 2 2 2 2 2 2 1 1 1 1 1 2 2 3 2 2 3 3 3 3 4 3 3
4 8 5 4 3 3 5 2 2 3 2 1 2 2 2 3 4 3 2 0 2 2 2 2 1 1 1 1 1 0 1 1 2 3 3 3 3 3 3 4 4 3 3 4
5 5 7 5 4 5 6 3 1 3 2 2 3 4 4 3 2 3 2 1 0 1 0 0 0 1 1 1 1 1 1 1 3 3 4 3 3 4 4 4 4 3 3 4
4 5 4 4 3 6 6 3 2 3 7 3 4 5 4 3 4 3 1 1 1 0 1 0 1 1 0 1 1 1 1 3 4 4 3 3 3 4 4 3 3 3 3 3
5 4 3 4 3 6 3 2 4 6 2 2 4 4 3 2 2 1 1 1 1 2 1 1 1 1 1 1 1 1 3 4 4 3 3 3 3 3 3 2 3 2 2 3
4 6 6 7 6 5 3 3 3 2 3 2 3 4 5 3 2 1 1 1 1 2 2 1 1 1 2 1 0 2 4 3 3 3 3 3 3 3 2 2 3 2 2 2
1 2 3 1 3 3 3 2 1 1 2 2 3 4 4 4 3 2 1 1 1 2 1 1 2 2 3 3 2 2 3 3 3 3 3 2 2 3 2 2 2 2 2 3
3 2 2 1 3 3 3 2 1 0 2 2 2 2 4 5 3 2 1 0 0 1 1 0 0 1 3 4 4 3 3 2 2 3 3 2 2 2 2 2 2 3 3 4
3 5 6 6 7 5 4 3 1 2 1 2 3 2 2 3 3 2 1 1 1 1 1 1 1 2 3 3 4 4 3 2 1 2 2 2 2 2 2 2 2 3 4 5
Wind_Direction
88 87 198 211 199 186 158 146 176 257 235 110 146 182 186 179 180 188 193 201 207 218 220 187 186 177 164 166 168 174 166 158 117 103 111 79 299 294 291 268 257 239 222 180
43 274 238 203 181 156 150 139 166 44 53 90 93 330 244 192 202 201 199 205 211 213 211 200 192 188 194 197 196 189 197 188 176 165 161 182 201 258 263 289 294 239 231 202
187 243 198 157 154 150 183 181 177 152 65 52 66 354 292 256 224 207 210 208 205 205 208 207 202 206 204 209 209 210 214 207 204 177 107 60 34 2 354 335 321 292 247 215
238 257 167 159 194 159 219 205 158 136 103 13 68 305 287 255 255 235 226 214 210 213 209 205 205 209 210 210 194 198 212 210 206 171 155 174 189 244 265 280 291 297 292 218
251 222 155 186 214 158 175 109 106 101 99 51 24 121 291 286 250 248 233 221 216 211 207 207 208 211 209 198 187 191 192 205 204 182 184 192 228 253 296 325 325 318 322 290
244 250 187 181 99 124 114 75 61 53 65 13 275 160 286 246 234 245 230 224 218 212 209 208 205 198 204 191 185 176 178 211 199 187 191 197 224 256 304 310 305 302 302 297
333 327 315 121 86 62 96 93 49 13 14 264 274 183 257 263 246 223 227 221 214 206 198 192 187 194 206 196 189 177 181 215 210 196 206 210 220 222 237 259 263 268 279 277
159 288 266 186 163 166 158 137 151 182 213 273 319 235 262 295 280 201 180 190 184 185 182 185 189 190 195 199 191 184 188 208 209 209 221 220 223 224 246 253 254 243 248 259
170 246 290 251 128 132 134 150 153 126 127 36 290 293 308 356 26 37 63 98 158 184 174 176 170 171 174 186 192 188 191 207 215 222 229 230 228 228 245 253 254 250 250 250
153 191 294 307 71 36 119 138 101 111 134 234 294 280 262 285 285 299 148 174 194 175 160 157 160 169 175 184 182 172 184 202 215 216 229 234 235 232 241 247 245 245 252 255
130 140 321 41 106 177 87 83 97 106 139 151 224 271 238 226 220 206 212 206 189 183 179 172 165 161 150 140 133 137 194 184 203 225 233 254 271 264 248 250 256 247 248 241
121 116 147 273 290 185 138 148 143 145 188 162 167 263 301 224 212 189 193 202 191 181 165 137 128 111 112 124 139 177 223 217 225 215 219 262 282 276 266 268 268 254 252 248
127 108 84 353 345 12 70 97 122 118 114 145 164 258 330 23 54 140 176 179 161 142 118 94 92 96 107 172 194 206 247 248 260 215 240 296 297 279 266 270 274 258 247 245
110 102 149 183 213 203 164 122 134 121 136 182 213 238 292 302 268 269 207 182 163 147 139 132 133 138 179 229 242 245 276 256 239 201 232 260 266 265 261 263 263 249 235 230
99 115 153 192 199 158 149 157 150 153 173 178 216 219 243 237 230 230 207 161 130 130 145 162 174 197 219 239 265 269 277 277 255 237 251 255 258 259 258 260 258 249 241 238
81 120 118 58 29 101 75 129 179 184 169 191 211 254 252 227 154 172 190 154 152 190 194 191 195 205 228 236 245 269 269 258 237 240 259 269 272 267 261 257 252 247 248 245
95 122 119 213 302 53 303 247 200 191 194 171 207 241 213 159 153 203 211 184 189 214 206 208 223 227 232 234 230 249 250 260 258 261 269 271 260 261 265 267 259 253 250 246
127 110 117 122 90 209 243 258 167 161 223 222 230 238 196 186 172 58 150 182 225 227 215 220 235 250 253 236 235 246 268 279 277 283 288 281 268 266 271 261 257 256 251 244
134 129 115 119 153 266 291 272 173 168 258 235 184 154 115 108 67 20 357 187 221 229 227 229 243 257 258 245 230 124 337 302 292 288 287 280 274 272 267 260 259 256 248 250
58 90 110 122 145 219 246 280 267 117 276 252 163 157 146 109 94 260 284 320 298 324 328 300 16 48 13 327 8 64 301 289 282 284 283 274 267 266 261 259 263 261 250 252
52 54 100 137 179 250 256 284 89 148 242 225 174 172 161 173 199 212 228 317 7 4 348 20 96 82 309 346 62 33 313 291 287 292 293 283 267 263 261 260 261 267 262 263
154 136 151 136 161 248 277 120 170 218 232 169 168 172 164 166 161 145 132 53 21 17 12 35 68 29 350 21 63 329 295 292 303 301 300 290 275 275 283 275 275 267 255 264
175 180 174 177 205 240 269 232 240 183 178 190 174 174 159 148 133 99 63 39 15 19 26 39 66 19 351 342 315 280 290 303 313 313 305 300 295 285 277 267 271 277 266 260
245 137 124 176 270 278 286 279 290 213 215 208 171 160 149 146 143 129 114 46 12 12 19 40 60 21 330 323 314 283 296 306 309 308 305 301 293 296 296 277 256 252 257 258
203 139 122 219 265 314 314 291 271 64 91 96 104 130 148 140 146 152 149 171 328 349 334 40 81 298 300 312 310 302 301 304 305 306 304 302 294 279 288 288 272 263 254 247
200 175 171 212 217 197 240 262 218 140 138 134 118 94 112 141 150 150 179 215 230 259 285 298 281 273 283 293 298 303 311 309 299 306 307 303 300 297 289 288 311 308 286 287